Theta_e
342 345 347 347 343 345 348 352 354 356 355 354 351 351 350 354 355 358 361 362 363 362 363 359 361 361 360 358 360 356 356 347 354 344 344 345 347 348 352 354 354 352 355
339 343 346 347 343 343 348 352 355 357 357 354 354 354 354 354 356 358 362 361 362 364 362 362 359 362 356 362 362 359 351 349 352 344 343 337 340 343 346 350 350 352 354
339 343 345 346 344 342 347 352 356 357 357 358 358 360 361 361 356 356 357 360 362 362 364 362 361 362 360 352 360 358 357 344 354 354 346 338 333 341 344 348 348 352 351
342 343 345 345 345 344 346 352 356 357 357 361 359 359 352 348 351 354 355 359 363 362 362 363 363 364 359 360 358 358 359 357 345 350 351 354 350 337 336 343 345 347 346
341 342 344 346 347 347 347 351 356 359 358 361 361 356 356 352 353 353 362 364 365 361 361 363 364 364 359 363 362 361 361 355 349 348 349 354 350 352 343 335 337 343 347
342 343 345 346 346 348 349 351 355 359 361 361 361 360 358 357 352 354 354 355 357 359 363 361 363 364 362 363 361 361 362 360 358 352 350 346 343 343 344 342 343 342 347
341 342 343 344 346 347 349 351 354 356 359 359 360 361 361 360 360 362 350 356 353 355 363 365 362 359 365 365 364 366 361 359 354 358 351 354 353 354 352 346 343 343 347
344 342 344 345 346 347 349 350 352 356 358 358 360 362 363 357 355 357 353 353 353 356 362 365 361 362 362 363 365 357 355 360 354 357 360 353 355 357 356 350 346 343 344
343 344 345 345 347 348 349 351 353 356 357 356 359 360 362 361 356 358 358 355 360 356 361 364 363 362 362 363 365 357 359 360 360 359 358 355 353 355 357 356 353 346 339
341 344 346 346 347 348 350 352 354 355 357 356 357 357 359 361 361 359 358 359 357 362 360 364 364 362 364 365 366 360 361 361 357 356 359 361 354 355 355 354 353 352 347
337 340 343 346 347 348 349 350 352 354 355 356 357 357 357 358 360 358 358 360 360 361 363 365 365 364 362 364 366 364 361 361 360 361 361 361 363 355 352 353 352 351 351
328 331 336 344 347 348 349 349 350 350 353 354 357 356 359 358 356 358 358 361 360 361 364 366 366 361 362 364 366 362 359 360 358 360 361 360 356 362 361 355 360 358 357
322 326 329 332 337 339 348 348 349 349 350 353 351 353 353 355 355 356 359 360 360 360 359 362 365 364 361 363 365 365 364 361 360 359 361 360 360 360 356 359 354 354 355
320 322 323 325 328 334 338 341 348 349 350 350 352 350 353 354 354 356 359 359 360 360 359 360 362 363 363 363 365 365 365 363 361 363 363 362 360 360 362 361 362 361 359
317 319 320 322 324 325 330 334 338 344 352 351 350 352 355 356 356 354 357 359 360 360 361 359 360 362 361 359 365 365 364 364 364 364 365 364 360 349 352 356 365 365 358
314 317 319 322 322 324 326 326 328 336 347 351 351 354 355 357 357 357 351 358 359 360 361 359 358 357 353 340 338 352 362 363 364 362 364 366 354 353 341 341 341 350 361
311 313 315 317 320 322 325 325 326 332 334 345 352 352 354 355 356 358 358 358 357 359 360 359 359 360 360 334 333 339 356 357 361 363 362 359 357 357 363 344 338 339 336
312 313 313 315 318 320 321 327 329 331 330 330 332 335 348 351 355 356 357 358 358 358 358 358 361 360 360 334 331 335 356 358 361 363 363 365 365 361 360 361 360 362 363
313 313 314 316 319 319 321 324 326 332 330 327 328 330 333 340 349 353 354 358 357 357 357 358 359 360 362 330 329 336 354 352 359 362 365 366 367 349 334 361 362 361 362
312 313 314 315 317 318 319 321 323 325 329 330 329 330 332 332 335 346 352 356 359 356 356 357 359 349 360 336 324 333 352 352 351 360 364 339 354 336 329 361 363 360 360
312 312 314 314 316 317 317 318 321 322 327 329 330 329 330 332 334 335 343 352 357 362 360 357 360 362 356 357 323 321 353 351 351 351 352 354 329 326 322 327 364 357 358
310 311 311 312 315 317 316 316 318 323 327 328 328 329 329 327 331 337 339 339 347 349 356 359 361 359 364 338 329 319 322 341 354 354 354 356 325 319 320 326 332 325 329
310 311 311 311 313 315 316 315 318 320 323 326 326 326 328 329 330 331 335 338 342 344 349 352 351 358 359 362 327 320 318 321 342 356 347 328 318 314 320 318 322 322 349
309 311 312 311 312 314 315 316 318 319 320 323 324 324 324 324 327 327 329 332 334 335 340 343 350 354 359 362 359 355 343 323 332 336 345 343 336 328 338 343 335 346 352
307 307 309 308 306 309 311 315 318 320 318 320 321 321 321 323 323 325 326 325 327 327 330 333 340 342 349 358 325 328 360 363 347 344 353 352 352 353 354 355 356 356 354
306 307 306 308 309 309 310 313 313 313 316 318 318 318 318 319 320 320 322 313 308 305 304 304 311 330 320 314 312 308 311 312 315 345 351 353 354 354 355 355 356 357 351
Wind_Speed
18 17 14 13 13 13 13 13 12 11 9 8 8 6 6 5 5 4 4 4 3 4 4 3 4 3 2 4 2 4 3 4 2 4 3 4 5 4 1 0 1 4 3
19 17 16 14 14 15 14 14 13 13 10 8 7 5 4 5 4 4 5 3 4 4 4 2 3 1 3 3 2 1 1 2 2 4 4 2 7 5 3 2 1 1 1
21 18 17 16 15 15 15 14 13 13 12 10 7 5 4 3 6 5 6 6 5 5 3 5 2 3 5 6 4 3 3 4 2 3 6 4 6 2 4 4 2 1 1
18 20 18 18 17 16 15 14 14 13 12 11 9 8 7 6 5 6 5 6 5 4 5 5 4 4 3 2 4 3 3 6 4 3 1 4 5 6 3 6 5 4 4
20 19 20 19 18 16 15 15 14 14 13 12 11 9 9 6 5 4 6 5 6 5 6 4 5 5 5 4 1 2 3 2 5 2 1 1 1 3 6 4 5 5 3
18 19 20 20 18 17 16 15 15 13 14 13 14 12 9 9 5 6 6 6 7 7 7 7 5 5 4 4 5 3 4 5 4 4 4 3 4 4 3 1 3 3 4
19 19 20 20 18 18 17 15 16 16 15 15 14 14 13 11 10 6 8 5 6 5 9 8 7 6 6 4 4 5 4 5 4 4 4 1 2 2 2 4 4 2 4
18 19 19 19 19 17 18 17 17 17 17 17 16 13 13 10 10 10 8 7 6 6 6 9 8 8 7 6 5 5 5 4 6 5 6 4 2 2 2 4 5 1 3
17 17 18 17 17 18 18 18 17 16 17 18 14 15 13 14 10 10 8 8 7 5 6 8 9 8 8 7 7 7 5 4 6 6 6 6 4 4 2 3 3 5 4
6 14 15 16 16 17 17 18 17 16 16 16 15 14 14 14 13 11 11 10 8 8 6 9 9 9 9 9 8 5 7 7 7 7 6 7 6 4 5 4 4 4 5
12 11 6 12 14 14 15 16 16 16 14 15 14 15 15 15 13 13 12 12 11 10 10 10 10 10 10 9 9 8 5 7 7 7 6 8 7 7 6 5 5 5 5
15 15 18 14 9 12 12 14 14 14 13 11 11 13 11 13 14 13 13 12 12 12 11 11 9 10 11 10 10 10 8 8 9 8 8 8 7 8 8 7 7 7 6
18 16 15 15 15 19 3 8 9 11 13 11 12 13 14 14 15 14 13 13 12 13 13 12 11 10 12 12 12 11 11 10 11 10 9 9 9 9 9 7 7 8 7
14 14 14 13 13 13 14 16 13 4 9 10 12 12 14 15 15 16 14 14 13 13 14 14 13 12 11 12 13 13 12 12 11 11 11 10 10 10 10 9 9 8 8
15 15 15 12 12 13 12 12 13 14 11 9 10 11 12 12 14 14 16 15 14 14 14 14 15 14 13 11 13 13 13 13 12 11 11 12 12 11 11 9 9 8 9
15 14 15 15 14 14 13 11 11 12 11 10 10 11 10 11 12 13 12 15 15 15 15 15 16 16 13 13 11 12 13 13 12 12 12 13 11 12 11 12 13 11 10
13 14 13 13 13 13 13 13 11 12 12 14 8 9 12 11 11 12 13 14 15 15 15 16 16 16 16 13 13 15 16 15 14 13 13 13 12 14 15 16 16 14 14
12 12 12 13 13 13 12 9 8 9 11 12 13 15 12 10 9 9 12 14 13 14 14 15 16 16 15 14 17 16 17 16 17 16 15 15 15 13 14 15 15 15 15
10 10 11 12 11 13 13 13 11 12 6 10 11 12 10 14 12 11 10 10 10 12 14 14 16 16 16 13 16 14 17 17 18 17 17 17 17 16 13 16 15 14 14
10 11 12 12 11 13 14 13 12 12 12 13 9 8 12 9 12 13 13 11 12 12 11 14 15 16 17 13 15 16 13 16 15 15 17 17 20 15 15 17 17 16 16
9 11 11 11 10 12 13 13 13 13 13 13 13 13 10 11 10 9 11 13 12 12 12 14 13 14 16 17 15 17 16 14 14 15 14 15 21 22 16 17 18 18 14
10 10 10 11 11 11 12 13 12 14 14 12 13 13 13 10 8 11 9 11 11 9 11 12 11 12 14 16 13 18 22 16 15 15 14 14 12 18 21 18 20 14 10
10 10 10 11 11 11 11 14 13 14 15 13 13 12 13 12 11 12 10 8 10 11 9 6 7 10 13 14 20 20 21 21 17 15 14 11 3 9 13 16 11 14 13
11 12 12 11 12 12 13 13 15 15 14 14 14 13 12 11 11 10 10 8 8 7 11 9 6 8 10 12 11 11 11 15 13 18 17 15 13 12 12 10 12 12 14
9 10 10 9 10 12 13 14 17 15 15 15 13 13 12 11 11 10 9 10 12 9 9 11 11 9 11 12 12 13 9 8 11 11 12 13 14 15 14 13 14 13 13
10 9 10 11 11 12 13 13 12 13 15 12 12 11 10 11 10 11 11 10 12 11 14 17 13 11 17 19 21 21 18 17 8 8 11 14 14 15 14 13 13 14 14
Wind_Direction
180 181 186 175 172 179 178 180 181 174 180 179 189 181 187 168 169 175 141 158 129 134 175 171 181 237 232 42 106 149 163 124 99 227 164 142 190 194 241 217 311 100 220
179 191 189 179 182 181 183 182 184 179 196 183 202 204 204 183 198 182 160 189 168 158 180 211 183 218 143 180 165 290 151 100 66 2 282 118 156 118 64 94 179 48 329
186 183 191 187 183 180 187 184 188 184 194 195 194 187 199 216 198 185 187 178 197 185 205 177 209 167 268 164 189 193 294 140 142 333 329 336 50 236 124 158 138 160 189
194 180 191 192 188 187 190 184 186 190 192 198 193 211 222 214 189 189 182 166 188 191 186 174 190 200 225 112 160 194 322 285 142 179 85 356 3 350 97 117 108 194 205
190 191 194 189 196 187 190 192 189 192 201 195 225 203 230 215 186 200 147 205 163 190 199 199 201 203 219 152 156 181 266 226 316 304 195 82 226 155 317 60 110 140 117
202 195 191 189 197 192 193 191 190 198 203 204 209 218 225 245 235 205 184 193 187 177 188 192 210 213 221 199 201 205 223 286 319 309 300 334 333 40 347 130 132 69 104
213 196 191 198 197 198 195 192 194 199 200 206 213 214 222 220 233 222 224 223 200 200 156 183 193 205 197 205 207 187 255 230 259 262 289 299 333 330 354 303 82 7 80
204 196 200 196 194 196 195 199 197 203 202 205 212 217 218 222 225 221 257 213 222 200 162 187 197 202 200 210 207 209 235 162 230 234 280 284 240 279 321 357 329 234 150
202 197 193 201 199 196 197 199 202 206 207 209 206 211 214 223 229 244 219 230 235 230 200 197 196 206 204 207 198 237 208 225 231 206 234 263 249 238 252 272 324 331 319
298 204 195 192 199 198 199 202 204 208 211 213 211 208 209 215 222 227 235 251 244 236 213 206 203 204 210 203 203 210 195 213 232 235 197 248 256 229 242 261 266 268 300
31 0 265 202 197 203 205 206 211 214 213 209 217 216 211 213 213 222 221 225 235 233 229 217 216 216 215 215 212 230 238 206 221 251 231 227 250 260 244 237 254 261 260
34 38 13 356 196 197 212 205 211 213 216 222 215 221 220 219 215 219 224 222 225 226 225 224 216 218 217 219 218 223 218 217 226 228 232 233 228 226 243 257 258 281 295
42 40 35 26 19 12 328 223 220 222 204 213 223 222 221 220 226 218 223 221 223 227 228 226 222 220 223 218 217 226 228 227 231 234 230 235 230 234 258 233 264 235 230
56 50 44 35 21 19 17 6 343 261 232 221 202 217 226 222 224 226 219 220 219 226 229 227 232 230 227 226 230 221 226 234 232 231 233 233 233 233 234 238 239 250 266
46 42 39 39 37 29 20 13 354 342 327 297 254 227 225 227 234 224 230 225 222 220 227 227 226 231 236 230 221 230 227 230 236 236 230 229 235 235 240 246 227 257 247
41 35 34 30 33 26 18 10 353 340 319 297 276 282 252 233 231 234 239 233 227 227 227 228 226 225 229 230 210 233 234 235 241 242 235 239 209 223 228 236 258 274 255
32 27 24 22 14 20 16 12 358 353 356 351 299 264 275 267 246 241 237 229 230 232 229 233 232 229 228 216 203 205 235 247 237 240 246 242 232 213 233 220 231 245 248
20 17 12 7 7 6 10 2 359 9 10 7 2 356 342 286 268 257 248 241 235 232 232 233 234 236 233 214 206 201 229 236 245 247 241 242 253 244 225 236 236 229 231
6 4 358 354 353 0 356 354 353 2 19 9 360 349 340 330 323 265 252 250 241 237 235 234 236 236 240 214 208 199 231 237 240 242 238 238 239 236 217 239 245 245 247
353 348 344 338 348 353 346 345 348 346 356 352 345 336 334 334 334 327 307 264 245 238 244 240 237 237 246 224 204 202 234 236 238 234 236 230 238 229 205 226 238 244 244
336 338 333 332 342 340 340 335 336 340 342 339 337 341 339 326 324 326 320 309 272 254 240 240 247 252 244 240 206 200 227 232 234 240 241 236 211 221 217 216 236 241 250
328 327 320 323 328 332 328 325 324 329 325 326 326 330 332 328 318 315 308 309 291 290 264 256 259 251 245 229 213 198 213 239 243 244 247 245 217 204 213 212 231 248 256
334 328 322 316 315 322 322 313 316 316 311 311 313 317 318 317 323 312 302 297 308 303 239 238 254 259 251 243 205 195 204 220 238 249 247 268 268 210 213 227 228 220 240
341 338 329 327 323 324 317 308 305 305 301 298 299 304 308 313 304 317 304 301 294 298 306 300 281 270 257 274 251 206 212 225 219 238 258 259 263 270 266 236 210 232 237
336 343 347 354 345 335 320 321 320 302 292 289 286 295 293 300 309 295 303 306 299 305 305 307 301 309 303 285 336 327 311 221 223 241 234 241 237 236 238 233 236 229 220
321 319 324 325 327 324 320 321 323 337 324 293 289 288 303 291 298 297 294 259 238 265 261 261 262 295 275 287 294 300 287 279 222 212 236 235 235 235 234 233 234 233 233